Weather History for Beaufort, NC

Change the Weather History Date:

Wednesday, March 20, 2013

  Actual Average Record
Temperature  
Mean Temperature 50 °F -  
Max Temperature 59 °F 63 °F 78 °F (2012)
Min Temperature 44 °F 42 °F 26 °F (1967)
Degree Days  
Heating Degree Days 14    
Moisture  
Dew Point 23 °F    
Average Humidity 36    
Maximum Humidity 65    
Minimum Humidity 18    
Precipitation  
Precipitation 0.00 in - - ()
Sea Level Pressure  
Sea Level Pressure 29.98 in    
Wind  
Wind Speed 7 mph (NNE)    
Max Wind Speed 15 mph    
Max Gust Speed 16 mph    
Visibility 10 miles    
Events      
Averages and records for this station are not official NWS values.
T = Trace of Precipitation, MM = Missing Value Source: NWS Daily Summary

Daily Weather History Graph

Daily Weather History Graph

Search for Another Location

Airport:

Trip Planner

Search our weather history database for the weather conditions in past years. The results will help you decide how hot, cold, wet, or windy it might be!

Date:

Astronomy

Mar. 20, 2013 Rise Set
Actual Time 7:09 AM EDT 7:18 PM EDT
Civil Twilight 6:44 AM EDT 7:43 PM EDT
Nautical Twilight 6:15 AM EDT 8:13 PM EDT
Astronomical Twilight 5:45 AM EDT 8:42 PM EDT
Moon 1:04 PM EDT (3/20) 2:35 AM EDT (3/20)
Length of Visible Light 12h 58m
Length of Day
12h 08m
First Quarter, 59% of the Moon is Illuminated
Mar 20
First Quarter
Mar 27
Full
Apr 3
Last Quarter
Apr 10
New
Apr 18
First Quarter

Hourly Weather History & Observations

Time (EDT) Temp. Windchill Dew Point Humidity Pressure Visibility Wind Dir Wind Speed Gust Speed Precip Events Conditions
12:58 AM 52.0 °F - 37.9 °F 59% 29.97 in 10.0 mi NNW 5.8 mph - N/A   Clear
1:58 AM 53.1 °F - 30.9 °F 43% 29.98 in 10.0 mi North 10.4 mph - N/A   Clear
2:58 AM 53.1 °F - 24.1 °F 32% 29.99 in 10.0 mi North 15.0 mph - N/A   Clear
3:58 AM 51.1 °F - 21.0 °F 31% 29.98 in 10.0 mi North 9.2 mph - N/A   Clear
4:58 AM 48.9 °F - 19.9 °F 32% 29.99 in 10.0 mi North 8.1 mph - N/A   Clear
5:58 AM 46.0 °F 42.5 °F 19.9 °F 35% 30.02 in 10.0 mi North 6.9 mph - N/A   Clear
6:58 AM 46.0 °F 43.9 °F 19.0 °F 34% 30.04 in 10.0 mi North 4.6 mph - N/A   Clear
7:58 AM 46.9 °F - 23.0 °F 39% 30.06 in 10.0 mi North 3.5 mph - N/A   Clear
8:58 AM 50.0 °F - 19.0 °F 29% 30.09 in 10.0 mi North 8.1 mph - N/A   Clear
9:58 AM 54.0 °F - 17.1 °F 23% 30.10 in 10.0 mi North 10.4 mph - N/A   Clear
10:58 AM 53.1 °F - 12.9 °F 20% 30.10 in 10.0 mi NE 9.2 mph - N/A   Clear
11:58 AM 54.0 °F - 15.1 °F 22% 30.09 in 10.0 mi NNE 8.1 mph 16.1 mph N/A   Clear
12:58 PM 55.9 °F - 14.0 °F 19% 30.06 in 10.0 mi Variable 4.6 mph - N/A   Mostly Cloudy
1:58 PM 57.0 °F - 14.0 °F 18% 30.02 in 10.0 mi NW 8.1 mph - N/A   Clear
2:58 PM 55.9 °F - 14.0 °F 19% 29.99 in 10.0 mi NNW 5.8 mph - N/A   Mostly Cloudy
3:58 PM 54.0 °F - 27.0 °F 35% 29.95 in 10.0 mi ESE 10.4 mph - N/A   Mostly Cloudy
4:58 PM 53.1 °F - 25.0 °F 34% 29.92 in 10.0 mi Variable 6.9 mph - N/A   Overcast
5:58 PM 52.0 °F - 23.0 °F 32% 29.90 in 10.0 mi ESE 6.9 mph - N/A   Overcast
6:58 PM 52.0 °F - 25.0 °F 35% 29.91 in 10.0 mi ESE 3.5 mph - N/A   Overcast
7:58 PM 52.0 °F - 27.0 °F 38% 29.90 in 10.0 mi Calm Calm - N/A   Overcast
8:58 PM 51.1 °F - 28.9 °F 43% 29.88 in 10.0 mi Calm Calm - N/A   Overcast
9:58 PM 46.9 °F - 32.0 °F 56% 29.86 in 10.0 mi NNE 3.5 mph - N/A   Overcast
10:58 PM 44.1 °F - 33.1 °F 65% 29.84 in 10.0 mi Calm Calm - N/A   Mostly Cloudy
11:58 PM 44.1 °F - 33.1 °F 65% 29.81 in 10.0 mi Calm Calm - N/A   Mostly Cloudy